Regional Weather Roundup
Issued by NWS

Home | Current Version | Previous Version | Graphics & Text | Print | Product List | Glossary On
Versions: 1 2 3 4 5 6 7 8 9 10 11 12 13 14 15 16 17 18 19 20 21 22 23 24 25 26 27 28 29 30 31 32 33 34 35 36 37 38 39 40 41 42 43 44 45 46 47 48 49 50
000
ASUS45 KBOU 061907
RWRCO

WEATHER ROUNDUP FOR COLORADO
NATIONAL WEATHER SERVICE DENVER/BOULDER CO
100 PM MDT WED MAY 06 2015

NOTE: "FAIR" INDICATES FEW OR NO CLOUDS BELOW 12000 FEET WITH NO
SIGNIFICANT WEATHER AND/OR OBSTRUCTIONS TO VISIBILITY.

COZ001>005-013-030-031-062000-
...NORTHWEST COLORADO...

CITY           SKY/WX    TMP DP  RH WIND       PRES   REMARKS
CRAIG          LGT RAIN  53  45  74 SW12      29.81F
HAYDEN         CLOUDY    48  41  76 W8        29.82F
MEEKER         CLOUDY    50  44  80 S5        29.83F
MOUNT WERNER   NOT AVBL
STEAMBOAT SPGS CLOUDY    46  41  85 W5        29.83F
WALDEN         CLOUDY    43  37  81 S6        29.83S
$$

COZ006>008-011-062000-
...WEST CENTRAL VALLEYS...

CITY           SKY/WX    TMP DP  RH WIND       PRES   REMARKS
GRAND JUNCTION TSTM      54  49  83 S14G24    29.79R
MONTROSE       CLOUDY    56  47  71 N13       29.85S
EAGLE          PTSUNNY   52  43  71 SW5       29.86F
RIFLE          CLOUDY    54  45  71 NE5       29.82F
DELTA          CLOUDY    57  51  79 NW5       29.83F
NUCLA          TSTM      55  45  67 NW14G20   29.89F
$$

COZ017>023-064>068-062000-
...SOUTHWEST COLORADO...

CITY           SKY/WX    TMP DP  RH WIND       PRES   REMARKS
DURANGO        MOSUNNY   59  41  51 W13       29.92F
CORTEZ         PTSUNNY   62  45  53 SW14G22   29.90F
PAGOSA SPRINGS PTSUNNY   54  40  58 SW15G22   29.95F THUNDER
TELLURIDE      CLOUDY    47  36  66 SW7       30.01F THUNDER
WOLF CREEK PAS NOT AVBL
$$

COZ009-010-012-014-032>034-037-058>063-062000-
...CENTRAL COLORADO...

CITY           SKY/WX    TMP DP  RH WIND       PRES   REMARKS
ASPEN          CLOUDY    48  39  71 NW5       29.88F
BUENA VISTA    NOT AVBL
COPPER MTN     CLOUDY    37  34  87 W17       30.00S
BERTHOUD PASS  CLOUDY    30  21  69 W28G35    30.00S WCI  16
COTTONWOOD PAS CLOUDY    48  36  61 NW6G17    29.91F
GUNNISON       PTSUNNY   52  39  62 W14G21    29.91S
KREMMLING      LGT RAIN  50  41  71 W8        29.85F
LEADVILLE      CLOUDY    46  35  65 N12G18    29.91F
MONARCH PASS   CLOUDY    32  32 100 MISG      30.09F
SALIDA         PTSUNNY   60  37  42 SW17G25   29.88F
SUNLIGHT       FOG       36  36 100 CALM      30.00F VSB 1/2
WILKERSON PASS CLOUDY    37  36  93 SW12G22   29.97F VSB 3/4
$$

COZ069>075-062000-
...SAN LUIS VALLEY/SANGRE DE CRISTO MOUNTAINS...

CITY           SKY/WX    TMP DP  RH WIND       PRES   REMARKS
ALAMOSA        MOSUNNY   63  38  39 SW22G31   29.84F
LA VETA PASS   PTSUNNY  N/A N/A N/A MISG      29.93F
SAGUACHE       PTSUNNY   46  41  81 CALM      29.90S THUNDER
$$

COZ035-036-038>040-062000-
...NORTHERN COLORADO FRONT RANGE...

CITY           SKY/WX    TMP DP  RH WIND       PRES   REMARKS
DENVER INTL AP CLOUDY    60  47  61 VRB3      29.70F
DMNS CITY PARK   N/A     62  48  58 NE9G15    29.69F
AURORA         PTSUNNY   60  49  67 NE9       29.71F
FRONT RANGE AP PTSUNNY   59  50  72 NW7       29.72F
ERIE MUNI ARPT DRIZZLE   61  49  65 E5        29.69F
BOULDER MUN AP CLOUDY    61  46  59 CALM      29.69F
CENTENNIAL     PTSUNNY   62  48  60 N8        29.70F
BROOMFIELD     PTSUNNY   61  48  63 NE5       29.71F
FORT COLLINS   CLOUDY    59  46  63 SW5       29.71R
LONGMONT       LGT RAIN  62  50  63 CALM      29.71S
$$

COZ041-046-047-076>085-087-088-062000-
...PIKES PEAK/PALMER DIVIDE AND SOUTHERN FOOTHILLS...

CITY           SKY/WX    TMP DP  RH WIND       PRES   REMARKS
COLO. SPRINGS  CLOUDY    58  48  69 SE6       29.74F
A. F. ACADEMY  MOSUNNY   61  46  58 SE12      29.73F
ELLICOTT       CLOUDY   N/A N/A N/A W8        29.73F THUNDER
FALCON         CLOUDY    58  44  58 SW5       29.77F
FORT CARSON    CLOUDY    57  50  78 VRB5      29.71F
LIMON          PTSUNNY   61  47  59 NW15      29.70F
MONUMENT HILL  PTSUNNY   54  41  62 N6        29.76S
TRINIDAD       MOSUNNY   69  41  36 N8        29.74F
$$

COZ042>045-048>051-090-091-062000-
...NORTHEAST COLORADO...

CITY           SKY/WX    TMP DP  RH WIND       PRES   REMARKS
GREELEY ARPT     N/A    N/A N/A N/A MISG        N/A
AKRON          RAIN      55  54  96 W18       29.64F FOG
BURLINGTON     CLOUDY    61  50  67 W10       29.68F
WRAY           CLOUDY    60  53  78 SW10G16   29.64S
STERLING       CLOUDY    61  54  77 N15       29.59F
HOLYOKE        NOT AVBL
FORT MORGAN    CLOUDY    57  53  86 W13G20    29.65F
$$

COZ086-089-092>099-062000-
...SOUTHEAST COLORADO...

CITY           SKY/WX    TMP DP  RH WIND       PRES   REMARKS
PUEBLO         PTSUNNY   67  50  54 VRB6      29.68F
LA JUNTA       PTSUNNY   69  54  58 E7        29.68F
LAMAR          CLOUDY    69  54  58 VRB5      29.67F
SPRINGFIELD      N/A     72  45  37 CALM      29.70F
$$


USA.gov is the U.S. government's official web portal to all federal, state and local government web resources and services.